Location: Bayshore Village Mobile Home Park
(26.6945°N, 81.8642°W)
Time: 21:51:48
(UTC+00:00)

Cosmos 836 Rocket - Pass Details

Date: 17 June 2021
Orbit: 758 x 777 km, 74.1° (Epoch: 31 July)

Event Time Altitude Azimuth Distance (km) Brightness Sun altitude
Exits shadow 08:12:30 75° 157° (SSE) 805 4.4 -26.1°
Maximum altitude 08:12:53 81° 104° (ESE) 789 4.5 -26.1°
Drops below altitude 10° 08:18:10 10° 18° (NNE) 2,324 7.8 -25.3°
Sets 08:20:33 0° 17° (NNE) 3,252 8.8 -24.9°
